This is the latest recevied weather packets stored in our database for station/object KD4MBW. If no packets are shown the sender has not sent any weather packets the latest 10 day(s).
| Time | Temp. | Humidity | Pressure | Rain* | Wind** | Luminosity | Snow |
|---|---|---|---|---|---|---|---|
| 1788040933 | 27.78° C | 86% | 1017.5 hPa | 0 mm | - | 214 W/m² | - |
| 1788040632 | 27.78° C | 88% | 1017.4 hPa | 0 mm | - | 187 W/m² | - |
| 1788040328 | 27.78° C | 89% | 1017.5 hPa | 0 mm | - | 210 W/m² | - |
| 1788040028 | 27.78° C | 87% | 1017.5 hPa | 0 mm | - | 228 W/m² | - |
| 1788039723 | 27.78° C | 88% | 1017.6 hPa | 0 mm | - | 233 W/m² | - |
| 1788039418 | 27.78° C | 88% | 1017.8 hPa | 0 mm | - | 225 W/m² | - |
| 1788039113 | 27.78° C | 88% | 1017.8 hPa | 0 mm | - | 225 W/m² | - |
| 1788038809 | 27.78° C | 89% | 1017.7 hPa | 0 mm | - | 221 W/m² | - |
| 1788038503 | 27.22° C | 90% | 1017.7 hPa | 0 mm | - | 195 W/m² | - |
| 1788038202 | 27.78° C | 89% | 1017.7 hPa | 0 mm | - | 194 W/m² | - |
| 1788037897 | 27.22° C | 89% | 1017.6 hPa | 0 mm | - | 195 W/m² | - |
| 1788037592 | 27.22° C | 90% | 1017.9 hPa | 0 mm | - | 197 W/m² | - |
| 1788037287 | 27.22° C | 89% | 1017.8 hPa | 0 mm | - | 207 W/m² | - |
| 1788036986 | 27.22° C | 90% | 1017.7 hPa | 0 mm | - | 214 W/m² | - |
| 1788036683 | 27.22° C | 89% | 1017.8 hPa | 0 mm | - | 221 W/m² | - |
| 1788036379 | 27.22° C | 92% | 1017.9 hPa | 0 mm | - | 236 W/m² | - |
| 1788036073 | 27.22° C | 91% | 1017.8 hPa | 0 mm | - | 239 W/m² | - |
| 1788035772 | 27.22° C | 92% | 1017.9 hPa | 0 mm | - | 243 W/m² | - |
| 1788035468 | 27.22° C | 92% | 1018 hPa | 0 mm | - | 241 W/m² | - |
| 1788035163 | 27.22° C | 92% | 1018 hPa | 0 mm | - | 239 W/m² | - |
| 1788034860 | 27.22° C | 92% | 1018 hPa | 0 mm | - | 240 W/m² | - |
| 1788034555 | 27.22° C | 92% | 1018.1 hPa | 0 mm | - | 225 W/m² | - |
| 1788034251 | 27.22° C | 92% | 1018.1 hPa | 0 mm | - | 233 W/m² | - |
| 1788033950 | 27.22° C | 91% | 1018.2 hPa | 0 mm | - | 237 W/m² | - |
| 1788033645 | 27.22° C | 90% | 1018.3 hPa | 0 mm | - | 223 W/m² | - |
* Rain latest hour (hover to see other rain measurements)
** Current wind speed in m/s (hover to see current wind gust speed)